14-08-2022, 00:00:09,    114,    0.0,   18.9,   0.00,   0.00, 1009.4,   42.8, -999.0
14-08-2022, 00:00:18,    113,    0.0,   19.0,   0.00,   0.00, 1009.4,   42.9, -999.0
14-08-2022, 00:00:29,    113,    0.0,   18.9,   0.00,   0.00, 1009.4,   42.9, -999.0
14-08-2022, 00:00:39,    113,    0.0,   18.9,   0.00,   0.00, 1009.4,   43.0, -999.0
14-08-2022, 00:00:48,    113,    0.0,   18.9,   0.00,   0.00, 1009.4,   42.9, -999.0
14-08-2022, 00:00:58,    113,    0.0,   18.9,   0.00,   0.00, 1009.4,   43.1, -999.0
14-08-2022, 00:01:08,    113,    0.0,   18.9,   0.00,   0.00, 1009.4,   43.1, -999.0
14-08-2022, 00:01:18,    113,    0.0,   18.9,   0.00,   0.00, 1009.4,   43.1, -999.0
14-08-2022, 00:01:28,    113,    0.0,   18.9,   0.00,   0.00, 1009.4,   43.0, -999.0
14-08-2022, 00:01:38,    113,    0.0,   18.9,   0.00,   0.00, 1009.4,   43.1, -999.0
14-08-2022, 00:01:48,    113,    0.0,   18.9,   0.00,   0.00, 1009.4,   43.1, -999.0
14-08-2022, 00:01:58,    113,    0.0,   18.8,   0.00,   0.00, 1009.4,   43.2, -999.0
14-08-2022, 00:02:08,    114,    0.0,   18.9,   0.00,   0.00, 1009.4,   43.1, -999.0
14-08-2022, 00:02:18,    113,    0.0,   19.0,   0.00,   0.00, 1009.4,   43.0, -999.0
14-08-2022, 00:02:28,    113,    0.0,   18.9,   0.00,   0.00, 1009.4,   43.0, -999.0
14-08-2022, 00:02:38,    113,    0.0,   19.0,   0.00,   0.00, 1009.4,   43.0, -999.0
14-08-2022, 00:02:47,    113,    0.0,   19.0,   0.00,   0.00, 1009.4,   43.0, -999.0
14-08-2022, 00:02:58,    113,    0.0,   19.0,   0.00,   0.00, 1009.4,   42.9, -999.0
14-08-2022, 00:03:08,    113,    0.0,   19.0,   0.00,   0.00, 1009.4,   43.0, -999.0
14-08-2022, 00:03:17,    113,    0.0,   19.0,   0.00,   0.00, 1009.4,   43.0, -999.0
14-08-2022, 00:03:27,    113,    0.0,   19.1,   0.00,   0.00, 1009.4,   43.0, -999.0
14-08-2022, 00:03:37,    113,    0.0,   19.0,   0.00,   0.00, 1009.4,   43.0, -999.0
14-08-2022, 00:03:47,    113,    0.0,   19.0,   0.00,   0.00, 1009.4,   43.1, -999.0
14-08-2022, 00:03:57,    113,    0.0,   18.9,   0.00,   0.00, 1009.4,   43.2, -999.0
14-08-2022, 00:04:07,    114,    0.0,   19.0,   0.00,   0.00, 1009.4,   43.0, -999.0
14-08-2022, 00:04:17,    113,    0.0,   18.9,   0.00,   0.00, 1009.4,   43.1, -999.0
14-08-2022, 00:04:27,    113,    0.0,   18.9,   0.00,   0.00, 1009.4,   43.3, -999.0
14-08-2022, 00:04:37,    113,    0.0,   18.9,   0.00,   0.00, 1009.4,   43.2, -999.0
14-08-2022, 00:04:47,    114,    0.0,   18.9,   0.00,   0.00, 1009.4,   43.2, -999.0
14-08-2022, 00:04:57,    113,    0.0,   18.9,   0.00,   0.00, 1009.3,   43.1, -999.0
14-08-2022, 00:05:07,    114,    0.0,   18.8,   0.00,   0.00, 1009.3,   43.1, -999.0
14-08-2022, 00:05:17,    113,    0.0,   18.8,   0.00,   0.00, 1009.4,   43.1, -999.0
14-08-2022, 00:05:27,    113,    0.0,   18.9,   0.00,   0.00, 1009.4,   43.1, -999.0
14-08-2022, 00:05:37,    113,    0.0,   18.9,   0.00,   0.00, 1009.3,   43.1, -999.0
14-08-2022, 00:05:46,    113,    0.0,   18.9,   0.00,   0.00, 1009.3,   43.2, -999.0
14-08-2022, 00:05:56,    113,    0.0,   18.9,   0.00,   0.00, 1009.3,   43.2, -999.0
14-08-2022, 00:06:07,    113,    0.0,   18.9,   0.00,   0.00, 1009.3,   43.1, -999.0
14-08-2022, 00:06:16,    113,    0.0,   18.9,   0.00,   0.00, 1009.3,   43.0, -999.0
14-08-2022, 00:06:26,    113,    0.0,   18.9,   0.00,   0.00, 1009.3,   43.0, -999.0
14-08-2022, 00:06:37,    114,    0.0,   18.9,   0.00,   0.00, 1009.3,   43.1, -999.0
14-08-2022, 00:06:46,    113,    0.0,   18.9,   0.00,   0.00, 1009.3,   43.2, -999.0
14-08-2022, 00:06:56,    113,    0.0,   18.9,   0.00,   0.00, 1009.3,   43.2, -999.0
14-08-2022, 00:07:06,    113,    0.0,   18.9,   0.00,   0.00, 1009.3,   43.1, -999.0
14-08-2022, 00:07:16,    113,    0.0,   18.9,   0.00,   0.00, 1009.3,   43.1, -999.0
14-08-2022, 00:07:26,    114,    0.0,   18.9,   0.00,   0.00, 1009.3,   43.1, -999.0
14-08-2022, 00:07:36,    113,    0.0,   18.9,   0.00,   0.00, 1009.3,   43.0, -999.0
14-08-2022, 00:07:46,    113,    0.0,   18.9,   0.00,   0.00, 1009.3,   43.2, -999.0
14-08-2022, 00:07:58,    115,    0.0,   18.9,   0.00,   0.00, 1009.3,   43.1, -999.0
14-08-2022, 00:08:06,    113,    0.0,   18.9,   0.00,   0.00, 1009.3,   43.2, -999.0
14-08-2022, 00:08:16,    113,    0.0,   18.9,   0.00,   0.00, 1009.3,   43.2, -999.0
14-08-2022, 00:08:26,    113,    0.0,   18.9,   0.00,   0.00, 1009.3,   43.1, -999.0
14-08-2022, 00:08:36,    113,    0.0,   18.9,   0.00,   0.00, 1009.3,   43.1, -999.0
14-08-2022, 00:08:45,    113,    0.0,   18.9,   0.00,   0.00, 1009.3,   43.3, -999.0
14-08-2022, 00:08:55,    114,    0.0,   18.9,   0.00,   0.00, 1009.3,   43.2, -999.0
14-08-2022, 00:09:06,    113,    0.0,   18.9,   0.00,   0.00, 1009.2,   43.2, -999.0
14-08-2022, 00:09:15,    113,    0.0,   18.9,   0.00,   0.00, 1009.3,   43.1, -999.0
14-08-2022, 00:09:25,    114,    0.0,   18.9,   0.00,   0.00, 1009.3,   43.1, -999.0
14-08-2022, 00:09:35,    113,    0.0,   18.9,   0.00,   0.00, 1009.3,   43.1, -999.0
14-08-2022, 00:09:45,    113,    0.0,   18.9,   0.00,   0.00, 1009.3,   43.1, -999.0
14-08-2022, 00:09:55,    113,    0.0,   18.8,   0.00,   0.00, 1009.3,   43.2, -999.0
14-08-2022, 00:10:05,    114,    0.0,   18.9,   0.00,   0.00, 1009.3,   43.1, -999.0
14-08-2022, 00:10:15,    113,    0.0,   18.9,   0.00,   0.00, 1009.3,   43.2, -999.0
14-08-2022, 00:10:25,    113,    0.0,   18.9,   0.00,   0.00, 1009.3,   43.2, -999.0
14-08-2022, 00:10:35,    113,    0.0,   18.8,   0.00,   0.00, 1009.3,   43.2, -999.0
14-08-2022, 00:10:45,    113,    0.0,   18.8,   0.00,   0.00, 1009.2,   43.4, -999.0
14-08-2022, 00:10:55,    113,    0.0,   18.9,   0.00,   0.00, 1009.3,   43.2, -999.0
14-08-2022, 00:11:05,    113,    0.0,   18.9,   0.00,   0.00, 1009.3,   43.4, -999.0
14-08-2022, 00:11:15,    113,    0.0,   18.8,   0.00,   0.00, 1009.2,   43.4, -999.0
14-08-2022, 00:11:24,    113,    0.0,   18.8,   0.00,   0.00, 1009.2,   43.4, -999.0
14-08-2022, 00:11:35,    113,    0.0,   18.9,   0.00,   0.00, 1009.2,   43.4, -999.0
14-08-2022, 00:11:44,    113,    0.0,   18.8,   0.00,   0.00, 1009.2,   43.5, -999.0
14-08-2022, 00:11:54,    113,    0.0,   18.8,   0.00,   0.00, 1009.2,   43.5, -999.0
14-08-2022, 00:12:06,    113,    0.0,   18.8,   0.00,   0.00, 1009.3,   43.5, -999.0
14-08-2022, 00:12:14,    113,    0.0,   18.9,   0.00,   0.00, 1009.2,   43.4, -999.0
14-08-2022, 00:12:24,    113,    0.0,   18.8,   0.00,   0.00, 1009.2,   43.4, -999.0
14-08-2022, 00:12:34,    113,    0.0,   18.9,   0.00,   0.00, 1009.2,   43.3, -999.0
14-08-2022, 00:12:44,    113,    0.0,   18.8,   0.00,   0.00, 1009.2,   43.5, -999.0
14-08-2022, 00:12:54,    114,    0.0,   18.8,   0.00,   0.00, 1009.2,   43.4, -999.0
14-08-2022, 00:13:04,    113,    0.0,   18.7,   0.00,   0.00, 1009.2,   43.5, -999.0
14-08-2022, 00:13:14,    113,    0.0,   18.8,   0.00,   0.00, 1009.2,   43.4, -999.0
14-08-2022, 00:13:24,    113,    0.0,   18.8,   0.00,   0.00, 1009.2,   43.5, -999.0
14-08-2022, 00:13:34,    113,    0.0,   18.7,   0.00,   0.00, 1009.2,   43.5, -999.0
14-08-2022, 00:13:44,    113,    0.0,   18.7,   0.00,   0.00, 1009.2,   43.5, -999.0
14-08-2022, 00:13:53,    118,    0.0,   18.8,   0.00,   0.00, 1009.2,   43.6, -999.0
14-08-2022, 00:14:04,    113,    0.0,   18.7,   0.00,   0.00, 1009.2,   43.6, -999.0
14-08-2022, 00:14:13,    113,    0.0,   18.7,   0.00,   0.00, 1009.2,   43.6, -999.0
14-08-2022, 00:14:23,    113,    0.0,   18.7,   0.00,   0.00, 1009.2,   43.6, -999.0
14-08-2022, 00:14:33,    113,    0.0,   18.7,   0.00,   0.00, 1009.2,   43.6, -999.0
14-08-2022, 00:14:43,    113,    0.0,   18.7,   0.00,   0.00, 1009.2,   43.7, -999.0
14-08-2022, 00:14:53,    113,    0.0,   18.7,   0.00,   0.00, 1009.2,   43.6, -999.0
14-08-2022, 00:15:03,    113,    0.0,   18.7,   0.00,   0.00, 1009.2,   43.7, -999.0
14-08-2022, 00:15:23,    113,    0.0,   18.6,   0.00,   0.00, 1009.2,   43.8, -999.0
14-08-2022, 00:15:33,    113,    0.0,   18.7,   0.00,   0.00, 1009.2,   43.9, -999.0
14-08-2022, 00:15:43,    113,    0.0,   18.7,   0.00,   0.00, 1009.1,   43.8, -999.0
14-08-2022, 00:15:53,    113,    0.0,   18.7,   0.00,   0.00, 1009.2,   43.9, -999.0
14-08-2022, 00:16:03,    113,    0.0,   18.7,   0.00,   0.00, 1009.2,   43.9, -999.0
14-08-2022, 00:16:13,    113,    0.0,   18.7,   0.00,   0.00, 1009.2,   43.8, -999.0
14-08-2022, 00:16:22,    113,    0.0,   18.7,   0.00,   0.00, 1009.1,   43.9, -999.0
14-08-2022, 00:16:33,    113,    0.0,   18.7,   0.00,   0.00, 1009.1,   43.7, -999.0
14-08-2022, 00:16:43,    113,    0.0,   18.7,   0.00,   0.00, 1009.1,   44.0, -999.0
14-08-2022, 00:16:52,    113,    0.0,   18.7,   0.00,   0.00, 1009.1,   43.9, -999.0
14-08-2022, 00:17:02,    113,    0.0,   18.6,   0.00,   0.00, 1009.1,   43.9, -999.0
14-08-2022, 00:17:12,    113,    0.0,   18.7,   0.00,   0.00, 1009.1,   43.9, -999.0
14-08-2022, 00:17:22,    113,    0.0,   18.7,   0.00,   0.00, 1009.1,   43.9, -999.0
14-08-2022, 00:17:32,    113,    0.0,   18.6,   0.00,   0.00, 1009.1,   43.9, -999.0
14-08-2022, 00:17:42,    113,    0.0,   18.7,   0.00,   0.00, 1009.1,   44.0, -999.0
14-08-2022, 00:17:52,    113,    0.0,   18.7,   0.00,   0.00, 1009.1,   44.0, -999.0
14-08-2022, 00:18:02,    113,    0.0,   18.7,   0.00,   0.00, 1009.1,   44.1, -999.0
14-08-2022, 00:18:12,    113,    0.0,   18.7,   0.00,   0.00, 1009.1,   44.1, -999.0
14-08-2022, 00:18:22,    113,    0.0,   18.7,   0.00,   0.00, 1009.1,   43.8, -999.0
14-08-2022, 00:18:32,    114,    0.0,   18.7,   0.00,   0.00, 1009.1,   44.0, -999.0
14-08-2022, 00:18:42,    114,    0.0,   18.6,   0.00,   0.00, 1009.1,   44.0, -999.0
14-08-2022, 00:18:52,    113,    0.0,   18.7,   0.00,   0.00, 1009.2,   44.0, -999.0
14-08-2022, 00:19:02,    113,    0.0,   18.7,   0.00,   0.00, 1009.2,   44.0, -999.0
14-08-2022, 00:19:12,    113,    0.0,   18.7,   0.00,   0.00, 1009.1,   43.9, -999.0
14-08-2022, 00:19:21,    114,    0.0,   18.7,   0.00,   0.00, 1009.1,   44.0, -999.0
14-08-2022, 00:19:31,    114,    0.0,   18.7,   0.00,   0.00, 1009.1,   44.1, -999.0
14-08-2022, 00:19:42,    114,    0.0,   18.7,   0.00,   0.00, 1009.2,   43.9, -999.0
14-08-2022, 00:19:51,    113,    0.0,   18.6,   0.00,   0.00, 1009.1,   44.0, -999.0
14-08-2022, 00:20:01,    113,    0.0,   18.7,   0.00,   0.00, 1009.1,   43.9, -999.0
14-08-2022, 00:20:11,    113,    0.0,   18.7,   0.00,   0.00, 1009.1,   44.0, -999.0
14-08-2022, 00:20:21,    114,    0.0,   18.8,   0.00,   0.00, 1009.1,   44.0, -999.0
14-08-2022, 00:20:31,    113,    0.0,   18.7,   0.00,   0.00, 1009.2,   44.1, -999.0
14-08-2022, 00:20:41,    113,    0.0,   18.7,   0.00,   0.00, 1009.1,   44.1, -999.0
14-08-2022, 00:20:51,    113,    0.0,   18.7,   0.00,   0.00, 1009.1,   44.1, -999.0
14-08-2022, 00:21:01,    113,    0.0,   18.7,   0.00,   0.00, 1009.2,   44.2, -999.0
14-08-2022, 00:21:11,    113,    0.0,   18.5,   0.00,   0.00, 1009.1,   44.1, -999.0
14-08-2022, 00:21:21,    113,    0.0,   18.6,   0.00,   0.00, 1009.1,   44.1, -999.0
14-08-2022, 00:21:31,    113,    0.0,   18.7,   0.00,   0.00, 1009.1,   44.1, -999.0
14-08-2022, 00:21:41,    113,    0.0,   18.7,   0.00,   0.00, 1009.1,   44.0, -999.0
14-08-2022, 00:21:51,    113,    0.0,   18.7,   0.00,   0.00, 1009.1,   44.1, -999.0
14-08-2022, 00:22:00,    113,    0.0,   18.7,   0.00,   0.00, 1009.1,   44.1, -999.0
14-08-2022, 00:22:11,    114,    0.0,   18.7,   0.00,   0.00, 1009.1,   44.0, -999.0
14-08-2022, 00:22:20,    114,    0.0,   18.7,   0.00,   0.00, 1009.1,   44.0, -999.0
14-08-2022, 00:22:30,    113,    0.0,   18.7,   0.00,   0.00, 1009.1,   44.1, -999.0
14-08-2022, 00:22:41,    113,    0.0,   18.7,   0.00,   0.00, 1009.2,   44.3, -999.0
14-08-2022, 00:22:50,    113,    0.0,   18.7,   0.00,   0.00, 1009.1,   44.2, -999.0
14-08-2022, 00:23:00,    114,    0.0,   18.6,   0.00,   0.00, 1009.1,   44.2, -999.0
14-08-2022, 00:23:10,    113,    0.0,   18.6,   0.00,   0.00, 1009.1,   44.1, -999.0
14-08-2022, 00:23:20,    113,    0.0,   18.6,   0.00,   0.00, 1009.1,   44.0, -999.0
14-08-2022, 00:23:30,    113,    0.0,   18.6,   0.00,   0.00, 1009.1,   44.2, -999.0
14-08-2022, 00:23:40,    113,    0.0,   18.6,   0.00,   0.00, 1009.1,   44.2, -999.0
14-08-2022, 00:23:50,    113,    0.0,   18.6,   0.00,   0.00, 1009.1,   44.2, -999.0
14-08-2022, 00:24:00,    113,    0.0,   18.6,   0.00,   0.00, 1009.2,   44.2, -999.0
14-08-2022, 00:24:10,    113,    0.0,   18.6,   0.00,   0.00, 1009.1,   44.2, -999.0
14-08-2022, 00:24:20,    113,    0.0,   18.6,   0.00,   0.00, 1009.1,   44.4, -999.0
14-08-2022, 00:24:29,    113,    0.0,   18.5,   0.00,   0.00, 1009.1,   44.3, -999.0
14-08-2022, 00:24:40,    113,    0.0,   18.6,   0.00,   0.00, 1009.1,   44.3, -999.0
14-08-2022, 00:24:50,    113,    0.0,   18.6,   0.00,   0.00, 1009.1,   44.4, -999.0
14-08-2022, 00:24:59,    113,    0.0,   18.5,   0.00,   0.00, 1009.1,   44.4, -999.0
14-08-2022, 00:25:10,    113,    0.0,   18.5,   0.00,   0.00, 1009.1,   44.2, -999.0
14-08-2022, 00:25:19,    113,    0.0,   18.5,   0.00,   0.00, 1009.1,   44.3, -999.0
14-08-2022, 00:25:29,    113,    0.0,   18.6,   0.00,   0.00, 1009.1,   44.5, -999.0
14-08-2022, 00:25:39,    113,    0.0,   18.5,   0.00,   0.00, 1009.1,   44.4, -999.0
14-08-2022, 00:25:49,    113,    0.0,   18.5,   0.00,   0.00, 1009.1,   44.4, -999.0
14-08-2022, 00:25:59,    113,    0.0,   18.5,   0.00,   0.00, 1009.1,   44.5, -999.0
14-08-2022, 00:26:09,    113,    0.0,   18.4,   0.00,   0.00, 1009.1,   44.5, -999.0
14-08-2022, 00:26:19,    113,    0.0,   18.5,   0.00,   0.00, 1009.1,   44.6, -999.0
14-08-2022, 00:26:29,    113,    0.0,   18.5,   0.00,   0.00, 1009.1,   44.6, -999.0
14-08-2022, 00:26:39,    113,    0.0,   18.4,   0.00,   0.00, 1009.1,   44.5, -999.0
14-08-2022, 00:26:49,    113,    0.0,   18.5,   0.00,   0.00, 1009.1,   44.6, -999.0
14-08-2022, 00:26:59,    113,    0.0,   18.5,   0.00,   0.00, 1009.1,   44.6, -999.0
14-08-2022, 00:27:09,    114,    0.0,   18.5,   0.00,   0.00, 1009.1,   44.6, -999.0
14-08-2022, 00:27:19,    113,    0.0,   18.4,   0.00,   0.00, 1009.1,   44.7, -999.0
14-08-2022, 00:27:28,    113,    0.0,   18.5,   0.00,   0.00, 1009.1,   44.7, -999.0
14-08-2022, 00:27:39,    113,    0.0,   18.5,   0.00,   0.00, 1009.1,   44.7, -999.0
14-08-2022, 00:27:49,    113,    0.0,   18.4,   0.00,   0.00, 1009.1,   44.7, -999.0
14-08-2022, 00:27:58,    113,    0.0,   18.4,   0.00,   0.00, 1009.1,   44.6, -999.0
14-08-2022, 00:28:08,    113,    0.0,   18.4,   0.00,   0.00, 1009.1,   44.7, -999.0
14-08-2022, 00:28:18,    113,    0.0,   18.4,   0.00,   0.00, 1009.1,   44.8, -999.0
14-08-2022, 00:28:28,    113,    0.0,   18.4,   0.00,   0.00, 1009.1,   44.6, -999.0
14-08-2022, 00:28:38,    113,    0.0,   18.4,   0.00,   0.00, 1009.1,   44.7, -999.0
14-08-2022, 00:28:48,    113,    0.0,   18.4,   0.00,   0.00, 1009.0,   44.9, -999.0
14-08-2022, 00:28:58,    113,    0.0,   18.3,   0.00,   0.00, 1009.1,   44.9, -999.0
14-08-2022, 00:29:08,    113,    0.0,   18.4,   0.00,   0.00, 1009.1,   44.8, -999.0
14-08-2022, 00:29:18,    113,    0.0,   18.4,   0.00,   0.00, 1009.1,   44.9, -999.0
14-08-2022, 00:29:28,    114,    0.0,   18.3,   0.00,   0.00, 1009.1,   45.0, -999.0
14-08-2022, 00:29:38,    113,    0.0,   18.5,   0.00,   0.00, 1009.1,   44.9, -999.0
14-08-2022, 00:29:48,    114,    0.0,   18.4,   0.00,   0.00, 1009.1,   45.0, -999.0
14-08-2022, 00:29:57,    113,    0.0,   18.4,   0.00,   0.00, 1009.1,   45.0, -999.0
14-08-2022, 00:30:08,    113,    0.0,   18.3,   0.00,   0.00, 1009.1,   44.8, -999.0
14-08-2022, 00:30:18,    113,    0.0,   18.2,   0.00,   0.00, 1009.1,   45.1, -999.0
14-08-2022, 00:30:27,    113,    0.0,   18.3,   0.00,   0.00, 1009.1,   45.1, -999.0
14-08-2022, 00:30:37,    114,    0.0,   18.3,   0.00,   0.00, 1009.1,   45.0, -999.0
14-08-2022, 00:30:48,    113,    0.0,   18.3,   0.00,   0.00, 1009.1,   45.0, -999.0
14-08-2022, 00:30:57,    113,    0.0,   18.3,   0.00,   0.00, 1009.1,   45.0, -999.0
14-08-2022, 00:31:07,    113,    0.0,   18.3,   0.00,   0.00, 1009.0,   45.0, -999.0
14-08-2022, 00:31:17,    113,    0.0,   18.3,   0.00,   0.00, 1009.1,   45.0, -999.0
14-08-2022, 00:31:27,    113,    0.0,   18.2,   0.00,   0.00, 1009.1,   45.1, -999.0
14-08-2022, 00:31:37,    114,    0.0,   18.3,   0.00,   0.00, 1009.0,   45.2, -999.0
14-08-2022, 00:31:47,    113,    0.0,   18.2,   0.00,   0.00, 1009.1,   45.2, -999.0
14-08-2022, 00:31:57,    113,    0.0,   18.2,   0.00,   0.00, 1009.1,   45.3, -999.0
14-08-2022, 00:32:07,    114,    0.0,   18.2,   0.00,   0.00, 1009.1,   45.4, -999.0
14-08-2022, 00:32:17,    113,    0.0,   18.1,   0.00,   0.00, 1009.0,   45.4, -999.0
14-08-2022, 00:32:27,    113,    0.0,   18.2,   0.00,   0.00, 1009.0,   45.3, -999.0
14-08-2022, 00:32:37,    114,    0.0,   18.2,   0.00,   0.00, 1009.0,   45.4, -999.0
14-08-2022, 00:32:47,    113,    0.0,   18.1,   0.00,   0.00, 1009.0,   45.4, -999.0
14-08-2022, 00:32:57,    114,    0.0,   18.1,   0.00,   0.00, 1009.0,   45.4, -999.0
14-08-2022, 00:33:06,    113,    0.0,   18.1,   0.00,   0.00, 1009.1,   45.5, -999.0
14-08-2022, 00:33:17,    113,    0.0,   18.1,   0.00,   0.00, 1009.0,   45.6, -999.0
14-08-2022, 00:33:26,    113,    0.0,   18.1,   0.00,   0.00, 1009.0,   45.8, -999.0
14-08-2022, 00:33:36,    113,    0.0,   18.1,   0.00,   0.00, 1009.1,   45.8, -999.0
14-08-2022, 00:33:46,    114,    0.0,   18.1,   0.00,   0.00, 1009.0,   45.7, -999.0
14-08-2022, 00:33:56,    113,    0.0,   18.1,   0.00,   0.00, 1009.0,   45.8, -999.0
14-08-2022, 00:34:06,    113,    0.0,   17.9,   0.00,   0.00, 1009.0,   45.9, -999.0
14-08-2022, 00:34:16,    113,    0.0,   17.9,   0.00,   0.00, 1009.0,   45.8, -999.0
14-08-2022, 00:34:26,    114,    0.0,   18.0,   0.00,   0.00, 1009.0,   46.0, -999.0
14-08-2022, 00:34:36,    113,    0.0,   17.9,   0.00,   0.00, 1009.0,   45.9, -999.0
14-08-2022, 00:34:46,    114,    0.0,   18.0,   0.00,   0.00, 1009.1,   46.0, -999.0
14-08-2022, 00:34:56,    113,    0.0,   17.9,   0.00,   0.00, 1009.0,   46.0, -999.0
14-08-2022, 00:35:06,    113,    0.0,   17.9,   0.00,   0.00, 1009.1,   46.0, -999.0
14-08-2022, 00:35:16,    114,    0.0,   17.9,   0.00,   0.00, 1009.0,   46.1, -999.0
14-08-2022, 00:35:26,    113,    0.0,   17.9,   0.00,   0.00, 1009.0,   46.2, -999.0
14-08-2022, 00:35:35,    113,    0.0,   17.9,   0.00,   0.00, 1009.0,   46.2, -999.0
14-08-2022, 00:35:46,    113,    0.0,   17.9,   0.00,   0.00, 1009.0,   46.1, -999.0
14-08-2022, 00:35:55,    113,    0.0,   17.9,   0.00,   0.00, 1009.0,   46.3, -999.0
14-08-2022, 00:36:05,    113,    0.0,   17.9,   0.00,   0.00, 1009.0,   46.5, -999.0
14-08-2022, 00:36:15,    114,    0.0,   17.9,   0.00,   0.00, 1009.0,   46.6, -999.0
14-08-2022, 00:36:25,    113,    0.0,   17.9,   0.00,   0.00, 1009.0,   46.6, -999.0
14-08-2022, 00:36:35,    113,    0.0,   17.8,   0.00,   0.00, 1009.0,   46.4, -999.0
14-08-2022, 00:36:45,    114,    0.0,   17.8,   0.00,   0.00, 1009.0,   46.5, -999.0
14-08-2022, 00:36:55,    113,    0.0,   17.8,   0.00,   0.00, 1009.0,   46.5, -999.0
14-08-2022, 00:37:05,    113,    0.0,   17.8,   0.00,   0.00, 1009.0,   46.5, -999.0
14-08-2022, 00:37:15,    113,    0.0,   17.8,   0.00,   0.00, 1009.1,   46.6, -999.0
14-08-2022, 00:37:25,    113,    0.0,   17.7,   0.00,   0.00, 1009.0,   46.6, -999.0
14-08-2022, 00:37:35,    113,    0.0,   17.7,   0.00,   0.00, 1009.0,   46.6, -999.0
14-08-2022, 00:37:45,    113,    0.0,   17.7,   0.00,   0.00, 1009.0,   46.6, -999.0
14-08-2022, 00:37:55,    113,    0.0,   17.8,   0.00,   0.00, 1009.0,   46.8, -999.0
14-08-2022, 00:38:04,    114,    0.0,   17.7,   0.00,   0.00, 1009.0,   46.9, -999.0
14-08-2022, 00:38:15,    113,    0.0,   17.7,   0.00,   0.00, 1009.0,   46.7, -999.0
14-08-2022, 00:38:25,    113,    0.0,   17.8,   0.00,   0.00, 1009.0,   46.7, -999.0
14-08-2022, 00:38:34,    114,    0.0,   17.7,   0.00,   0.00, 1009.0,   46.6, -999.0
14-08-2022, 00:38:44,    113,    0.0,   17.8,   0.00,   0.00, 1009.0,   46.6, -999.0
14-08-2022, 00:38:55,    113,    0.0,   17.8,   0.00,   0.00, 1009.0,   46.6, -999.0
14-08-2022, 00:39:04,    113,    0.0,   17.8,   0.00,   0.00, 1009.0,   46.7, -999.0
14-08-2022, 00:39:14,    112,    0.0,   17.8,   0.00,   0.00, 1009.1,   46.5, -999.0
14-08-2022, 00:39:24,    113,    0.0,   17.8,   0.00,   0.00, 1009.0,   46.6, -999.0
14-08-2022, 00:39:34,    114,    0.0,   17.8,   0.00,   0.00, 1009.0,   46.6, -999.0
14-08-2022, 00:39:44,    113,    0.0,   17.8,   0.00,   0.00, 1009.0,   46.6, -999.0
14-08-2022, 00:39:54,    113,    0.0,   17.8,   0.00,   0.00, 1009.0,   46.6, -999.0
14-08-2022, 00:40:04,    114,    0.0,   17.7,   0.00,   0.00, 1009.0,   46.4, -999.0
14-08-2022, 00:40:14,    113,    0.0,   17.7,   0.00,   0.00, 1009.0,   46.5, -999.0
14-08-2022, 00:40:24,    114,    0.0,   17.7,   0.00,   0.00, 1009.0,   46.5, -999.0
14-08-2022, 00:40:34,    114,    0.0,   17.7,   0.00,   0.00, 1009.0,   46.5, -999.0
14-08-2022, 00:40:44,    114,    0.0,   17.7,   0.00,   0.00, 1009.0,   46.5, -999.0
14-08-2022, 00:40:54,    113,    0.0,   17.7,   0.00,   0.00, 1009.0,   46.6, -999.0
14-08-2022, 00:41:03,    113,    0.0,   17.7,   0.00,   0.00, 1009.0,   46.6, -999.0
14-08-2022, 00:41:13,    113,    0.0,   17.7,   0.00,   0.00, 1009.0,   46.5, -999.0
14-08-2022, 00:41:24,    113,    0.0,   17.6,   0.00,   0.00, 1009.0,   46.5, -999.0
14-08-2022, 00:41:33,    113,    0.0,   17.7,   0.00,   0.00, 1009.0,   46.7, -999.0
14-08-2022, 00:41:43,    113,    0.0,   17.7,   0.00,   0.00, 1009.0,   46.6, -999.0
14-08-2022, 00:41:54,    114,    0.0,   17.7,   0.00,   0.00, 1009.0,   46.7, -999.0
14-08-2022, 00:42:03,    113,    0.0,   17.7,   0.00,   0.00, 1009.0,   46.7, -999.0
14-08-2022, 00:42:13,    113,    0.0,   17.7,   0.00,   0.00, 1009.0,   46.7, -999.0
14-08-2022, 00:42:23,    113,    0.0,   17.7,   0.00,   0.00, 1009.0,   46.8, -999.0
14-08-2022, 00:42:33,    113,    0.0,   17.6,   0.00,   0.00, 1009.0,   46.7, -999.0
14-08-2022, 00:42:43,    113,    0.0,   17.6,   0.00,   0.00, 1009.0,   46.7, -999.0
14-08-2022, 00:42:53,    114,    0.0,   17.7,   0.00,   0.00, 1009.0,   46.8, -999.0
14-08-2022, 00:43:03,    113,    0.0,   17.6,   0.00,   0.00, 1009.0,   46.9, -999.0
14-08-2022, 00:43:13,    113,    0.0,   17.7,   0.00,   0.00, 1009.0,   47.0, -999.0
14-08-2022, 00:43:23,    113,    0.0,   17.6,   0.00,   0.00, 1009.0,   46.9, -999.0
14-08-2022, 00:43:33,    113,    0.0,   17.6,   0.00,   0.00, 1009.0,   47.0, -999.0
14-08-2022, 00:43:43,    113,    0.0,   17.6,   0.00,   0.00, 1009.0,   46.9, -999.0
14-08-2022, 00:43:53,    113,    0.0,   17.6,   0.00,   0.00, 1009.0,   46.8, -999.0
14-08-2022, 00:44:02,    113,    0.0,   17.7,   0.00,   0.00, 1009.0,   46.8, -999.0
14-08-2022, 00:44:12,    113,    0.0,   17.7,   0.00,   0.00, 1009.0,   46.8, -999.0
14-08-2022, 00:44:23,    113,    0.0,   17.7,   0.00,   0.00, 1009.0,   46.9, -999.0
14-08-2022, 00:44:32,    113,    0.0,   17.7,   0.00,   0.00, 1009.0,   46.7, -999.0
14-08-2022, 00:44:42,    113,    0.0,   17.7,   0.00,   0.00, 1009.0,   46.7, -999.0
14-08-2022, 00:44:52,    114,    0.0,   17.7,   0.00,   0.00, 1009.0,   46.8, -999.0
14-08-2022, 00:45:02,    113,    0.0,   17.7,   0.00,   0.00, 1009.0,   46.9, -999.0
14-08-2022, 00:45:12,    114,    0.0,   17.7,   0.00,   0.00, 1009.0,   46.9, -999.0
14-08-2022, 00:45:22,    113,    0.0,   17.7,   0.00,   0.00, 1009.0,   46.8, -999.0
14-08-2022, 00:45:32,    113,    0.0,   17.8,   0.00,   0.00, 1009.0,   46.9, -999.0
14-08-2022, 00:45:42,    113,    0.0,   17.7,   0.00,   0.00, 1009.0,   46.8, -999.0
14-08-2022, 00:45:52,    113,    0.0,   17.7,   0.00,   0.00, 1009.0,   46.8, -999.0
14-08-2022, 00:46:02,    113,    0.0,   17.7,   0.00,   0.00, 1009.0,   46.6, -999.0
14-08-2022, 00:46:12,    113,    0.0,   17.8,   0.00,   0.00, 1009.0,   46.7, -999.0
14-08-2022, 00:46:22,    112,    0.0,   17.8,   0.00,   0.00, 1009.0,   46.7, -999.0
14-08-2022, 00:46:32,    113,    0.0,   17.8,   0.00,   0.00, 1009.0,   46.7, -999.0
14-08-2022, 00:46:41,    113,    0.0,   17.8,   0.00,   0.00, 1009.0,   46.6, -999.0
14-08-2022, 00:46:52,    113,    0.0,   17.9,   0.00,   0.00, 1009.0,   46.4, -999.0